Find SpaceMobile-004

NORAD ID: 61049 Int'l Des: 2024-163 Owner: ASTS Country: US Constellation: bluewalker operational
LEOCIRCULAR

当前视图

正在加载3D地球...

关于 SpaceMobile-004

正在加载描述...

即将过境

Passes for default location (London). Set your location on the main map for personalized predictions.

高度历史

Loading altitude history...

两行轨道根数

1 61049U 24163E 26150.88270730 .00029192 00000-0 13118-2 0 9994
2 61049 52.9784 28.5029 0010071 91.2937 268.9211 15.20892093 95139
Epoch: May 30, 2026 • Age: 26 hours

当前状态

高度 513.2 km
速度 7.61 km/s
星下点 -24.76°S, 15.89°W
发射日期 Sep 12, 2024
运行时间 1.7 years
类型 other

技术详情

分类 Payload
质量 1500.00 kg
干质量 1500.00 kg
总质量 1500.00 kg
长度 1.00 m
直径 1.00 m
跨度 9.00 m
形状 Box + plate
制造商 ASTS
平台类型 BW3
阶段状态 In Orbit
所有者/国家 ASTS/US

Most Searched